#timestamp,LO_Frequency,Hit,StdDev 
1633708815.9,286047000.8,N
1633708835.7,286047000.2,N
1633708855.6,286047000.2,N
1633708875.4,286047000.9,N
1633708895.2,286047000.9,N
1633708915.1,286047000.5,N
1633708916.0,286047000.5,N
1633708935.8,286047000.7,N
1633708955.7,286046998.7,N
1633708975.5,286046998.1,N
1633708995.3,286046999.2,N
1633709015.2,286046998.1,N
1633709035.0,286046999.6,N
1633709035.9,286046999.6,N
1633709055.8,286046999.2,N
1633709075.6,286046999.1,N
1633709095.4,286046999.5,N
1633709115.3,286046996.8,Y
1633709135.1,286046996.8,P
1633709155.8,286046996.7,N
1633709175.7,286046996.9,N
1633709195.5,286046996.9,N
1633709215.4,286046997.0,N
1633709235.2,286046999.5,N
1633709255.0,286046999.4,N
1633709255.9,286046999.4,N
1633709275.8,286046998.9,N
1633709295.6,286046998.7,N
1633709315.4,286046998.3,N
1633709335.3,286046998.4,N
1633709355.1,286046999.0,N
1633709375.9,286046998.3,N
1633709395.7,286046998.4,N
1633709415.5,286046999.0,N
1633709435.4,286046999.3,N
1633709455.2,286046998.9,N
1633709475.0,286046999.1,N
1633709476.0,286046999.1,N
1633709495.8,286046999.2,N
1633709515.6,286046997.7,N
1633709535.5,286046999.3,N
1633709555.3,286046996.5,Y
1633709575.1,286047000.9,P
1633709595.9,286047001.2,N
1633709615.7,286047001.0,N
1633709635.6,286047000.9,N
1633709655.4,286046998.5,N
1633709675.2,286047000.5,N
1633709695.1,286047001.1,N
1633709696.0,286047001.1,N
1633709715.8,286047000.7,N
1633709735.6,286047000.6,N
1633709755.5,286047000.0,N
1633709775.3,286047002.8,Y
1633709795.2,286046999.7,P
1633709815.9,286046999.9,N
1633709835.7,286047000.2,N
1633709855.6,286047002.3,Y
1633709875.4,286046999.7,P
1633709895.2,286047002.2,P
1633709915.1,286047002.0,N
1633709916.0,286047002.0,N
1633709935.8,286047002.4,N
1633709955.7,286047002.3,N
1633709975.5,286047002.5,N
1633709995.3,286047001.5,N
1633710015.2,286047002.1,N
1633710035.0,286047002.4,N
1633710035.9,286047002.4,N
1633710055.8,286047002.3,N
1633710075.6,286047002.1,N
1633710095.4,286047000.2,N
1633710115.3,286047002.4,N
1633710135.1,286047002.6,N
1633710155.8,286047002.3,N
1633710175.7,286047002.1,N
1633710195.5,286047002.6,Y
1633710215.4,286047001.2,P
1633710235.2,286047000.3,N
1633710255.0,286047001.2,N
1633710255.9,286047001.2,N
1633710275.8,286047001.2,N
1633710295.6,286047000.4,N
1633710315.4,286046998.7,N
1633710335.3,286046998.2,N
1633710355.1,286047001.2,N
1633710375.9,286047000.4,N
1633710395.7,286046999.8,N
1633710415.5,286047000.9,N
1633710435.4,286047000.1,N
1633710485.2,286047000.0,E
1633710495.2,286047000.4,N
1633710515.9,286047002.4,P
1633710535.7,286047002.7,N
1633710555.6,286047001.4,N
1633710575.4,286047002.4,N
1633710595.2,286047001.6,N
1633710615.1,286047001.7,N
1633710616.0,286047001.7,N
1633710635.8,286047001.6,N
1633710655.7,286047002.0,Y
1633710675.5,286047000.4,P
1633710695.3,286047000.4,N
1633710715.2,286047000.0,N
1633710735.0,286046999.7,N
1633710735.9,286046999.7,N
1633710755.8,286047000.1,N
1633710775.6,286047002.8,Y
1633710795.4,286046999.7,P
1633710815.3,286047002.7,P
1633710835.1,286046999.9,N
1633710855.9,286047002.3,N
1633710875.7,286047002.7,N
1633710895.5,286047002.0,N
1633710915.4,286047002.8,N
1633710935.2,286047002.1,N
1633710955.0,286047004.0,Y
1633710955.9,286047004.0,P
1633710975.8,286046999.7,N
1633710995.6,286046999.8,N
1633711015.5,286047002.4,N
1633711035.3,286047002.1,N
1633711055.1,286046999.7,N
1633711075.9,286047000.2,N
1633711095.7,286047000.6,N
1633711115.5,286047000.2,N
1633711135.4,286047000.1,N
1633711155.2,286046999.8,N
1633711175.1,286047002.4,N
1633711176.0,286047002.4,N
1633711195.8,286046999.8,N
1633711215.6,286047002.7,N
1633711235.5,286047002.3,N
1633711255.3,286047002.3,N
1633711275.2,286047000.1,N
1633711295.9,286047002.8,N
1633711315.7,286047002.4,N
1633711335.6,286047002.2,N
1633711355.4,286047002.3,N
1633711375.2,286047002.1,N
1633711395.1,286047002.3,N
1633711396.0,286047002.3,N
1633711415.8,286047002.4,N
1633711435.7,286047001.5,N
1633711455.5,286047001.5,N
1633711475.3,286047002.7,N
1633711495.2,286047002.2,N
1633711515.0,286046999.8,N
1633711515.9,286046999.8,N
1633711535.7,286047002.6,N
1633711555.6,286047001.6,N
1633711575.4,286047002.5,N
1633711595.3,286047001.7,N
1633711615.1,286047003.6,Y
1633711635.8,286047001.4,P
1633711655.7,286047001.5,P
1633711675.5,286047004.0,P
1633711695.3,286047001.8,N
1633711715.2,286047004.4,Y
1633711735.0,286047000.4,P
1633711735.9,286047000.4,N
1633711755.8,286047000.0,N
1633711775.6,286047000.0,N
1633711795.4,286047000.9,N
1633711815.3,286047002.4,Y
1633711835.1,286047000.1,P
1633711855.9,286047002.3,P
1633711875.7,286047001.5,N
1633711895.5,286047002.3,N
1633711915.4,286047004.4,Y
1633711935.2,286047003.9,P
1633711955.0,286047004.2,P
1633711956.0,286047004.2,P
1633711975.8,286047002.1,N
1633711995.6,286046999.7,N
1633712015.5,286046999.7,N
1633712035.3,286047002.0,N
1633712055.1,286047002.5,N
1633712075.9,286047001.3,N
1633712095.7,286047003.9,N
1633712115.6,286047004.2,N
1633712135.4,286047004.0,N
1633712155.2,286047003.1,N
1633712175.1,286047003.3,N
1633712176.0,286047003.3,N
1633712195.8,286047003.9,N
1633712215.6,286047003.8,N
1633712235.5,286047002.9,N
1633712255.3,286047001.3,N
1633712275.2,286047003.8,N
1633712295.9,286047003.3,N
1633712315.7,286047005.0,Y
1633712335.6,286047004.3,P
1633712355.4,286047004.4,P
1633712375.2,286047001.3,N
1633712395.1,286047004.2,Y
1633712396.0,286047004.2,P
